TimeEST,TemperatureF,Dew PointF,Humidity,Sea Level PressureIn,VisibilityMPH,Wind Direction,Wind SpeedMPH,Gust SpeedMPH,PrecipitationIn,Events,Conditions,WindDirDegrees,DateUTC
12:53 AM,32.0,30.0,92,30.03,2.5,SE,3.5,-,N/A,,Overcast,140,2013-12-09 05:53:00
1:04 AM,32.0,30.2,93,29.99,2.0,ESE,3.5,-,0.00,Rain,Light Freezing Rain,120,2013-12-09 06:04:00
1:27 AM,32.0,30.2,93,29.98,2.5,SSE,3.5,-,0.00,,Overcast,150,2013-12-09 06:27:00
1:53 AM,33.1,30.9,92,29.99,2.5,SE,4.6,-,0.00,,Overcast,130,2013-12-09 06:53:00
2:16 AM,33.8,30.2,87,29.97,1.8,SSE,4.6,-,N/A,,Overcast,150,2013-12-09 07:16:00
2:24 AM,33.8,30.2,87,29.96,2.0,SE,4.6,-,N/A,,Overcast,130,2013-12-09 07:24:00
2:32 AM,33.8,30.2,87,29.96,1.8,SE,4.6,-,N/A,,Overcast,130,2013-12-09 07:32:00
2:45 AM,33.8,32.0,93,29.96,2.0,Calm,Calm,-,N/A,,Overcast,0,2013-12-09 07:45:00
2:53 AM,33.1,32.0,96,29.99,2.0,SSE,3.5,-,N/A,,Overcast,160,2013-12-09 07:53:00
3:08 AM,33.8,30.2,87,29.95,1.8,SSE,3.5,-,0.00,,Overcast,150,2013-12-09 08:08:00
3:19 AM,33.8,33.8,100,29.96,2.0,SSE,3.5,-,0.00,,Overcast,160,2013-12-09 08:19:00
3:27 AM,33.8,32.0,93,29.96,2.0,SSE,3.5,-,0.00,,Overcast,150,2013-12-09 08:27:00
3:45 AM,35.6,33.8,93,29.95,3.0,South,5.8,-,0.00,,Overcast,170,2013-12-09 08:45:00
3:53 AM,36.0,34.0,93,29.98,6.0,SSW,4.6,-,0.00,,Overcast,210,2013-12-09 08:53:00
4:53 AM,37.0,34.0,89,29.98,6.0,SW,5.8,-,0.02,,Overcast,220,2013-12-09 09:53:00
5:53 AM,36.0,34.0,93,29.99,8.0,SW,6.9,-,0.09,,Overcast,230,2013-12-09 10:53:00
6:02 AM,35.6,33.8,93,29.97,5.0,WSW,5.8,-,N/A,,Overcast,240,2013-12-09 11:02:00
6:53 AM,36.0,33.1,89,30.02,10.0,SW,8.1,16.1,0.02,,Overcast,230,2013-12-09 11:53:00
7:53 AM,36.0,32.0,86,30.03,10.0,SW,5.8,-,0.02,,Overcast,220,2013-12-09 12:53:00
8:53 AM,35.1,30.9,85,30.06,8.0,Variable,5.8,-,0.02,Rain,Light Rain,0,2013-12-09 13:53:00
9:03 AM,35.6,30.2,81,30.04,9.0,WSW,11.5,19.6,0.00,Rain,Light Rain,250,2013-12-09 14:03:00
9:34 AM,35.6,30.2,81,30.04,10.0,SW,6.9,-,0.01,,Overcast,230,2013-12-09 14:34:00
9:51 AM,35.6,30.2,81,30.05,10.0,WSW,5.8,-,0.02,,Overcast,240,2013-12-09 14:51:00
9:53 AM,35.1,30.0,82,30.08,10.0,SW,8.1,-,0.02,,Overcast,230,2013-12-09 14:53:00
10:14 AM,35.6,30.2,81,30.06,10.0,WSW,8.1,-,N/A,,Overcast,240,2013-12-09 15:14:00
10:46 AM,35.6,28.4,75,30.07,10.0,WSW,9.2,-,0.01,,Overcast,250,2013-12-09 15:46:00
10:53 AM,35.1,28.9,78,30.10,10.0,WSW,9.2,16.1,0.01,,Overcast,250,2013-12-09 15:53:00
11:02 AM,35.6,28.4,75,30.08,10.0,WSW,10.4,-,N/A,,Overcast,250,2013-12-09 16:02:00
11:53 AM,35.1,27.0,72,30.11,10.0,West,11.5,17.3,0.02,,Overcast,270,2013-12-09 16:53:00
12:53 PM,34.0,26.1,73,30.11,10.0,WSW,12.7,18.4,0.01,,Overcast,240,2013-12-09 17:53:00
1:53 PM,33.1,25.0,72,30.09,10.0,West,8.1,-,0.01,,Overcast,260,2013-12-09 18:53:00
2:53 PM,33.1,25.0,72,30.11,10.0,West,6.9,-,0.01,,Overcast,270,2013-12-09 19:53:00
3:53 PM,32.0,25.0,75,30.13,10.0,WSW,6.9,-,N/A,,Overcast,240,2013-12-09 20:53:00
4:53 PM,32.0,21.9,66,30.16,10.0,WSW,9.2,16.1,N/A,,Overcast,250,2013-12-09 21:53:00
5:23 PM,30.2,21.2,69,30.14,10.0,West,9.2,18.4,N/A,,Overcast,260,2013-12-09 22:23:00
5:30 PM,30.2,21.2,69,30.14,10.0,West,8.1,-,N/A,,Overcast,260,2013-12-09 22:30:00
5:53 PM,30.9,21.0,67,30.17,10.0,WSW,8.1,-,N/A,,Overcast,250,2013-12-09 22:53:00
6:53 PM,30.9,21.0,67,30.18,10.0,SW,10.4,-,N/A,,Overcast,230,2013-12-09 23:53:00
7:53 PM,30.0,21.0,69,30.19,10.0,SW,9.2,-,N/A,,Overcast,230,2013-12-10 00:53:00
8:53 PM,30.0,21.0,69,30.19,10.0,WSW,5.8,-,N/A,,Overcast,240,2013-12-10 01:53:00
9:53 PM,30.0,19.9,66,30.17,10.0,WSW,8.1,-,N/A,,Overcast,250,2013-12-10 02:53:00
10:53 PM,28.9,19.0,67,30.15,10.0,WSW,6.9,-,N/A,,Scattered Clouds,240,2013-12-10 03:53:00
11:53 PM,28.0,19.9,72,30.16,10.0,WSW,6.9,-,N/A,,Scattered Clouds,250,2013-12-10 04:53:00